Weather History for Langley AFB, VA

Change the Weather History Date:

Wednesday, July 10, 2013

  Actual Average Record
Temperature  
Mean Temperature 84 °F -  
Max Temperature 90 °F 87 °F 100 °F (1993)
Min Temperature 77 °F 72 °F 60 °F (1961)
Cooling Degree Days 18    
Growing Degree Days 34 (Base 50)    
Moisture  
Dew Point 75 °F    
Average Humidity 78    
Maximum Humidity 91    
Minimum Humidity 62    
Precipitation  
Precipitation 0.00 in - - ()
Sea Level Pressure  
Sea Level Pressure 30.02 in    
Wind  
Wind Speed 14 mph (SSW)    
Max Wind Speed 18 mph    
Max Gust Speed 23 mph    
Visibility 10 miles    
Events      
Averages and records for this station are not official NWS values.
T = Trace of Precipitation, MM = Missing Value Source: NWS Daily Summary

Daily Weather History Graph

Daily Weather History Graph

Search for Another Location

Airport:

Trip Planner

Search our weather history database for the weather conditions in past years. The results will help you decide how hot, cold, wet, or windy it might be!

Date:

Astronomy

Jul. 10, 2013 Rise Set
Actual Time 5:54 AM EDT 8:27 PM EDT
Civil Twilight 5:23 AM EDT 8:57 PM EDT
Nautical Twilight 4:46 AM EDT 9:35 PM EDT
Astronomical Twilight 4:04 AM EDT 10:16 PM EDT
Moon 8:08 AM EDT (7/10) 9:40 PM EDT (7/10)
Length of Visible Light 15h 33m
Length of Day
14h 32m
Waxing Crescent, 5% of the Moon is Illuminated
Jul 10
Waxing Crescent
Jul 15
First Quarter
Jul 22
Full
Jul 29
Last Quarter
Aug 6
New

Hourly Weather History & Observations

Time (EDT) Temp. Heat Index Dew Point Humidity Pressure Visibility Wind Dir Wind Speed Gust Speed Precip Events Conditions
12:58 AM 77.5 °F - 74.1 °F 89% 30.10 in 10.0 mi SSW 12.7 mph - N/A   Partly Cloudy
1:58 AM 77.5 °F - 74.5 °F 90% 30.09 in 10.0 mi SSW 10.4 mph - N/A   Scattered Clouds
2:58 AM 78.1 °F - 74.3 °F 88% 30.07 in 10.0 mi SW 17.3 mph 23.0 mph N/A   Overcast
3:58 AM 78.3 °F - 74.7 °F 89% 30.07 in 10.0 mi SW 13.8 mph - N/A   Overcast
4:58 AM 77.5 °F - 74.8 °F 91% 30.06 in 10.0 mi SSW 12.7 mph - N/A   Overcast
5:58 AM 77.5 °F - 74.5 °F 90% 30.06 in 10.0 mi SSW 15.0 mph 21.9 mph N/A   Overcast
6:58 AM 77.7 °F - 74.7 °F 90% 30.07 in 10.0 mi SW 13.8 mph - N/A   Scattered Clouds
7:03 AM 78.8 °F - 75.2 °F 89% 30.05 in 10.0 mi SW 12.7 mph 20.7 mph N/A   Mostly Cloudy
7:58 AM 78.3 °F - 74.8 °F 89% 30.07 in 10.0 mi SSW 16.1 mph - N/A   Overcast
8:58 AM 79.3 °F - 74.5 °F 85% 30.07 in 10.0 mi SSW 15.0 mph - N/A   Overcast
9:08 AM 80.6 °F 86.2 °F 75.2 °F 84% 30.05 in 10.0 mi SSW 15.0 mph - N/A   Overcast
9:58 AM 80.1 °F 84.6 °F 74.3 °F 82% 30.06 in 10.0 mi SSW 16.1 mph - N/A   Mostly Cloudy
10:56 AM 82.4 °F 89.5 °F 75.2 °F 79% 30.04 in 10.0 mi SW 16.1 mph - N/A   Scattered Clouds
10:58 AM 82.4 °F 89.5 °F 75.2 °F 79% 30.04 in 10.0 mi SW 16.1 mph - N/A   Scattered Clouds
11:45 AM 86.0 °F 91.8 °F 71.6 °F 62% 30.02 in 10.0 mi SW 6.9 mph 11.5 mph N/A   Mostly Cloudy
11:56 AM 84.2 °F 92.3 °F 75.2 °F 74% 30.04 in 10.0 mi SW 10.4 mph - N/A   Mostly Cloudy
12:56 PM 87.8 °F 99.7 °F 77.0 °F 70% 30.03 in 10.0 mi WSW 12.7 mph 19.6 mph N/A   Scattered Clouds
1:56 PM 87.8 °F 97.6 °F 75.2 °F 66% 30.01 in 10.0 mi SW 13.8 mph 20.7 mph N/A   Scattered Clouds
2:18 PM 86.0 °F 95.1 °F 75.2 °F 70% 29.99 in 10.0 mi SSW 13.8 mph 21.9 mph N/A   Mostly Cloudy
2:39 PM 87.8 °F 97.6 °F 75.2 °F 66% 29.99 in 10.0 mi SW 16.1 mph 19.6 mph N/A   Scattered Clouds
3:58 PM 89.4 °F 99.4 °F 75.0 °F 62% 29.98 in 10.0 mi SSW 18.4 mph - N/A   Scattered Clouds
4:58 PM 90.0 °F 100.7 °F 75.2 °F 62% 29.97 in 10.0 mi SW 15.0 mph - N/A   Scattered Clouds
5:43 PM 87.8 °F 95.6 °F 73.4 °F 62% 29.94 in 10.0 mi South 18.4 mph - N/A   Scattered Clouds
5:58 PM 85.1 °F 93.7 °F 75.0 °F 72% 29.95 in 10.0 mi South 15.0 mph - N/A   Partly Cloudy
6:58 PM 83.7 °F 92.0 °F 75.9 °F 77% 29.96 in 10.0 mi SSW 17.3 mph - N/A   Clear
7:58 PM 82.9 °F 90.5 °F 75.4 °F 78% 29.98 in 10.0 mi SSW 15.0 mph - N/A   Partly Cloudy
8:58 PM 82.9 °F 89.7 °F 74.3 °F 75% 29.97 in 10.0 mi SSW 11.5 mph - N/A   Overcast
9:58 PM 82.0 °F 88.4 °F 74.7 °F 78% 29.98 in 10.0 mi SSW 12.7 mph - N/A   Scattered Clouds
10:58 PM 81.3 °F 87.0 °F 74.1 °F 79% 29.97 in 10.0 mi SSW 13.8 mph - N/A   Clear
11:58 PM 79.5 °F - 72.1 °F 78% 29.97 in 10.0 mi SSW 12.7 mph - N/A   Mostly Cloudy